Regional Weather Roundup
Issued by NWS

Home | Current Version | Previous Version | Graphics & Text | Print | Product List | Glossary On
Versions: 1 2 3 4 5 6 7 8 9 10 11 12 13 14 15 16 17 18 19 20 21 22 23 24 25 26 27
000
ASUS45 KTFX 260510
RWRMT
MONTANA REGIONAL WEATHER ROUNDUP
NATIONAL WEATHER SERVICE GREAT FALLS MT
1100 PM MDT TUE APR 25 2017

NOTE: "FAIR" INDICATES FEW OR NO CLOUDS BELOW 12000 FEET WITH NO
SIGNIFICANT WEATHER AND/OR OBSTRUCTIONS TO VISIBILITY.

MTZ001>007-043-260600-
WEST OF THE DIVIDE

CITY           SKY/WX    TMP DP  RH WIND       PRES   REMARKS
KALISPELL      CLOUDY    41  39  93 N3        29.81S
MISSOULA       CLOUDY    42  37  82 NW6       29.84S
BUTTE          CLOUDY    39  29  67 CALM      29.82S
MULLAN PASS    CLOUDY    32  31  96 VRB6      29.80S WCI  26
ANACONDA         N/A     41  28  60 CALM      29.82S
DEER LODGE       N/A     36  30  80 CALM      29.84F
EUREKA           N/A     43  37  81 S9        29.79S
HAMILTON         N/A     46  34  61 CALM      29.83S
$$

MTZ008-052>055-260600-
SOUTHWEST MONTANA

CITY           SKY/WX    TMP DP  RH WIND       PRES   REMARKS
BOZEMAN        CLOUDY    43  36  76 S8        29.80S
DILLON         CLOUDY    41  33  73 S8        29.81R
W YELLOWSTONE  CLOUDY    36  32  87 SW12G20   29.85S WCI  27
THREE FORKS      N/A     45  41  86 CALM      29.82R
$$

MTZ009-010-012-014-046-048-049-054-260600-
EAST SLOPES AND CENTRAL MONTANA

CITY           SKY/WX    TMP DP  RH WIND       PRES   REMARKS
CUT BANK       CLOUDY    36  33  89 E5        29.83F
GREAT FALLS    CLOUDY    39  36  89 W5        29.84F
MALMSTROM AFB  MOCLDY    39  38  96 SW7       29.85F
HELENA         PTCLDY    38  34  85 W6        29.83S
AUGUSTA        LGT RAIN  35  34  96 W6        29.84S WCI  30
BOWMANS CRNR   CLOUDY    35  34  96 S6        29.82F WCI  30
CHOTEAU          N/A     37  37 100 CALM      29.86S
FAIRFIELD      MOCLDY    37  35  92 CALM      29.84S
POWER          CLOUDY    38  37  97 W3        29.83F
RAYNESFORD     MOCLDY    37  35  92 CALM      29.84F
ULM            MOCLDY    38  37  97 S6        29.85F
$$

MTZ011-013-016-021-045-047-050-051-260600-
NORTH CENTRAL MONTANA

CITY           SKY/WX    TMP DP  RH WIND       PRES   REMARKS
HAVRE          CLOUDY    40  36  86 NW3       29.86R
LEWISTOWN      LGT SNOW  33  31  92 E3        29.84R FOG
CHINOOK          N/A     37  30  75 E15G21    29.88R WCI  28
DENTON         FLURRIES  35  34  96 NW12      29.82S WCI  26
FORT BENTON      N/A     39  37  93 MISG      29.87S
GEYSER         MOCLDY    34  33  96 CALM      29.84F
GRASS RANGE    FLURRIES  34  32  92 E13       29.82R WCI  25
JUDITH GAP     LGT RAIN  34  32  92 S16       29.83R WCI  24
STANFORD       FLURRIES  33  33 100 N6        29.84S WCI  27
WINIFRED       LGT RAIN  34  32  95 E8        29.84R WCI  27
$$

MTZ017>020-022>027-061-062-260600-
NORTHEAST MONTANA

CITY           SKY/WX    TMP DP  RH WIND       PRES   REMARKS
GLASGOW        CLOUDY    38  23  55 E16       29.93F WCI  29
JORDAN           N/A     38  28  67 SE6       29.91F
SIDNEY         CLOUDY    34  25  69 NW6       29.99S WCI  29
WOLF POINT     CLOUDY    38  25  59 E12       29.98S WCI  30
PLENTYWOOD       N/A     28  23  80 NE5       29.99F
POPLAR           N/A     36  25  64 E10       29.99S WCI  28
SCOBEY           N/A     35  20  55 E10       29.95F WCI  27
$$

MTZ028>42-056>058-260600-
SOUTHCENTRAL AND SOUTHEAST MONTANA

CITY           SKY/WX    TMP DP  RH WIND       PRES   REMARKS
BAKER          CLOUDY    30  23  75 E3        29.95S
BILLINGS       CLOUDY    35  29  78 E10       29.88S WCI  27
LIVINGSTON     MOCLDY    37  35  92 E9        29.81F WCI  30
MILES CITY     CLOUDY    36  25  64 SE6       29.94F WCI  31
BIG TIMBER     MOCLDY    34  34 100 E8        29.86S FOG     WCI  27
LAUREL           N/A     35  24  64 NE5       29.88F
ROUNDUP          N/A     37  27  68 SE5       29.80S
$$

REGIONAL REPORTS...DAKOTAS

CITY           SKY/WX    TMP DP  RH WIND       PRES   REMARKS
WILLISTON      CLOUDY    36  24  62 NE6       29.99S WCI  31
MINOT          CLOUDY    33  26  75 N7        29.97S WCI  27
DICKINSON      CLOUDY    31  25  78 NW7       29.91F WCI  24
BEACH            N/A     28  27  93 NW5       29.98S
TIOGA            N/A     28  28 100 E5        29.99R
WATFORD CITY     N/A     32  25  74 E3        29.97S
BISMARCK       CLOUDY    37  28  70 N10       29.92S WCI  30
GRAND FORKS    CLOUDY    33  27  78 NE21G29   29.89F WCI  21
FARGO          CLOUDY    33  28  81 N18G30    29.79F WCI  22
BUFFALO SD       N/A     30  25  81 N8        29.86S WCI  22
RAPID CITY     CLOUDY    28  25  88 N18       29.91F WCI  15
$$

REGIONAL REPORTS...WYOMING/IDAHO/WASHINGTON

CITY           SKY/WX    TMP DP  RH WIND       PRES   REMARKS
GILLETTE       CLOUDY    27  27 100 NW5       29.90S
SHERIDAN       CLOUDY    33  29  85 E5        29.88F
CODY           CLOUDY    35  32  88 S7        29.86S WCI  29
YELLOWSTONE LA   N/A     29  28  96 CALM      29.88S
IDAHO FALLS    CLOUDY    43  32  65 S15       29.87R
SALMON         CLOUDY    43  34  70 S3        29.84R
BOISE          CLOUDY    52  33  48 W10       29.91R
SPOKANE        MOCLDY    48  34  58 S9        29.80S
$$

REGIONAL REPORTS...ALBERTA

CITY           SKY/WX    TMP DP  RH WIND       PRES   REMARKS
EDMONTON       CLOUDY    32  28  86 S8        29.91F WCI  25
CALGARY        MOCLDY    28  25  86 SE5       29.85F
LETHBRIDGE     LGT RAIN  36  32  87 S8        29.86S WCI  29
MEDICINE HAT   CLOUDY    37  37 100 CALM      29.86F
WATERTON GATE    N/A     32  30  93 NE6         N/A  WCI  26
CARDSTON         N/A     32  32 100 E2          N/A
MILK RIVER       N/A     36  34  93 N6          N/A  WCI  31
$$

REGIONAL REPORTS...SASKATCHEWAN

CITY           SKY/WX    TMP DP  RH WIND       PRES   REMARKS
SWIFT CURRENT  CLOUDY    32  27  80 E14       29.91F WCI  22
REGINA         MOCLDY    34  23  64 NE9       30.02F WCI  26
SASKATOON      CLOUDY    34  21  60 E8        30.05F WCI  27
CYPRESS HILLS    N/A     28  27  93 SE8         N/A  WCI  20
VAL MARIE        N/A     36  27  69 SE10        N/A  WCI  28
$$




USA.gov is the U.S. government's official web portal to all federal, state and local government web resources and services.